"read_dt","SO2 (ppb)","flags","PMT voltage (V)","lamp voltage (V)","lamp intensity (Hz)","internal temp (C)","react chamber temp (C)","sample flow (l/min)","pres (mmHg)","SO2 bkg (ppb)","SO2 coefficient"
2018-07-22 00:00:00,-3.308E-01,4C000000*,-702.6,966.618,90,25.7,45.2,0.406,735.7,2.2,1.050*
2018-07-22 00:01:00,-3.232E-01,4C000000*,-702.6,967.427,90,25.6,44.8,0.406,735.4,2.2,1.050*
2018-07-22 00:02:00,-2.762E-01,4C000000*,-702.6,967.022,90,25.6,44.9,0.406,735.7,2.2,1.050*
2018-07-22 00:03:00,-2.538E-01,4C000000*,-703.0,967.022,90,25.6,45.0,0.406,735.7,2.2,1.050*
2018-07-22 00:04:00,-2.416E-01,4C000000*,-702.6,967.022,90,25.6,44.8,0.406,735.7,2.2,1.050*
2018-07-22 00:05:00,-3.697E-01,4C000000*,-703.0,967.427,90,25.6,45.0,0.406,735.7,2.2,1.050*
2018-07-22 00:06:00,-2.898E-01,4C000000*,-703.0,967.022,90,25.6,45.0,0.406,735.4,2.2,1.050*
2018-07-22 00:07:00,-3.628E-01,4C000000*,-703.4,965.809,90,25.5,44.9,0.406,735.7,2.2,1.050*
2018-07-22 00:08:00,-2.067E-01,4C000000*,-702.6,965.405,90,25.7,45.1,0.406,735.7,2.2,1.050*
2018-07-22 00:09:00,-2.472E-01,4C000000*,-702.6,966.214,89,25.7,44.9,0.406,735.4,2.2,1.050*
2018-07-22 00:10:00,-2.899E-01,4C000000*,-703.0,967.022,89,25.6,44.8,0.406,735.4,2.2,1.050*
2018-07-22 00:11:00,-2.530E-01,4C000000*,-703.0,965.809,90,25.6,45.2,0.407,735.4,2.2,1.050*
2018-07-22 00:12:00,-3.885E-01,4C000000*,-702.6,966.214,90,25.6,44.8,0.406,735.4,2.2,1.050*
2018-07-22 00:13:00,-3.033E-01,4C000000*,-703.0,966.214,90,25.6,44.9,0.406,735.4,2.2,1.050*
2018-07-22 00:14:00,-2.565E-01,4C000000*,-703.0,966.214,90,25.7,45.0,0.405,735.4,2.2,1.050*
2018-07-22 00:15:00,-2.569E-01,4C000000*,-703.0,965.405,89,25.6,44.7,0.406,735.4,2.2,1.050*
2018-07-22 00:16:00,-2.419E-01,4C000000*,-703.0,965.405,89,25.6,45.0,0.406,735.4,2.2,1.050*
2018-07-22 00:17:00,-2.020E-01,4C000000*,-703.0,966.618,90,25.7,45.0,0.406,735.4,2.2,1.050*
2018-07-22 00:18:00,-3.217E-01,4C000000*,-702.6,965.405,91,25.6,44.9,0.406,735.4,2.2,1.050*
2018-07-22 00:19:00,-3.188E-01,4C000000*,-703.0,965.809,89,25.7,45.0,0.406,735.4,2.2,1.050*
2018-07-22 00:20:00,-3.430E-01,4C000000*,-703.0,966.618,90,25.6,44.8,0.406,735.4,2.2,1.050*
2018-07-22 00:21:00,-2.722E-01,4C000000*,-702.3,966.214,90,25.6,44.9,0.406,735.4,2.2,1.050*
2018-07-22 00:22:00,-3.378E-01,4C000000*,-703.0,967.427,89,25.6,45.2,0.406,735.1,2.2,1.050*
2018-07-22 00:23:00,-3.383E-01,4C000000*,-702.6,966.618,90,25.6,44.8,0.406,735.4,2.2,1.050*
2018-07-22 00:24:00,-2.516E-01,4C000000*,-703.0,966.618,89,25.6,45.0,0.406,735.1,2.2,1.050*
2018-07-22 00:25:00,-3.098E-01,4C000000*,-703.0,966.618,90,25.6,45.0,0.406,735.1,2.2,1.050*
2018-07-22 00:26:00,-3.837E-01,4C000000*,-702.6,966.618,90,25.6,44.8,0.406,735.1,2.2,1.050*
2018-07-22 00:27:00,-2.909E-01,4C000000*,-702.6,967.022,90,25.6,45.0,0.406,735.4,2.2,1.050*
2018-07-22 00:28:00,-3.331E-01,4C000000*,-703.0,965.809,89,25.7,45.0,0.406,735.1,2.2,1.050*
2018-07-22 00:29:00,-2.166E-01,4C000000*,-703.0,966.618,90,25.7,44.8,0.406,735.4,2.2,1.050*
2018-07-22 00:30:00,-2.818E-01,4C000000*,-703.0,966.618,90,25.7,45.1,0.406,735.4,2.2,1.050*
2018-07-22 00:31:00,-2.818E-01,4C000000*,-702.6,967.427,90,25.7,44.9,0.406,735.1,2.2,1.050*
2018-07-22 00:32:00,-2.461E-01,4C000000*,-703.0,966.214,91,25.6,44.9,0.406,735.1,2.2,1.050*
2018-07-22 00:33:00,-2.726E-01,4C000000*,-702.6,967.022,92,25.7,45.2,0.406,735.1,2.2,1.050*
2018-07-22 00:34:00,-2.526E-01,4C000000*,-703.0,967.022,90,25.7,44.8,0.406,735.1,2.2,1.050*
2018-07-22 00:35:00,-1.885E-01,4C000000*,-703.0,967.831,90,25.7,44.9,0.406,735.1,2.2,1.050*
2018-07-22 00:36:00,-2.235E-01,4C000000*,-702.6,966.214,90,25.7,45.0,0.406,735.1,2.2,1.050*
2018-07-22 00:37:00,-3.112E-01,4C000000*,-703.0,966.214,90,25.6,44.8,0.406,735.1,2.2,1.050*
2018-07-22 00:38:00,-2.370E-01,4C000000*,-703.0,967.022,90,25.7,45.0,0.406,735.4,2.2,1.050*
2018-07-22 00:39:00,-3.075E-01,4C000000*,-703.0,966.618,90,25.7,45.0,0.406,735.1,2.2,1.050*
2018-07-22 00:40:00,-3.107E-01,4C000000*,-703.0,966.214,90,25.7,44.8,0.406,735.1,2.2,1.050*
2018-07-22 00:41:00,-3.370E-01,4C000000*,-702.3,965.809,90,25.7,45.0,0.406,735.1,2.2,1.050*
2018-07-22 00:42:00,-2.633E-01,4C000000*,-703.0,965.405,90,25.7,44.9,0.406,735.1,2.2,1.050*
2018-07-22 00:43:00,-2.594E-01,4C000000*,-703.0,965.809,90,25.7,44.9,0.406,735.1,2.2,1.050*
2018-07-22 00:44:00,-2.852E-01,4C000000*,-703.0,967.831,90,25.7,45.1,0.406,735.1,2.2,1.050*
2018-07-22 00:45:00,-3.120E-01,4C000000*,-702.6,967.022,90,25.7,44.8,0.406,735.1,2.2,1.050*
2018-07-22 00:46:00,-2.535E-01,4C000000*,-703.0,967.022,90,25.7,44.9,0.406,735.1,2.2,1.050*
2018-07-22 00:47:00,-3.260E-01,4C000000*,-703.0,966.214,89,25.7,45.1,0.406,734.8,2.2,1.050*
2018-07-22 00:48:00,-2.245E-01,4C000000*,-703.0,967.022,90,25.7,44.8,0.406,735.1,2.2,1.050*
2018-07-22 00:49:00,-2.319E-01,4C000000*,-703.0,966.214,90,25.7,45.0,0.406,735.1,2.2,1.050*
2018-07-22 00:50:00,-3.063E-01,4C000000*,-703.0,965.809,89,25.7,45.0,0.406,734.8,2.2,1.050*
2018-07-22 00:51:00,-2.901E-01,4C000000*,-703.0,967.022,90,25.7,44.8,0.406,735.1,2.2,1.050*
2018-07-22 00:52:00,-3.121E-01,4C000000*,-703.0,967.022,90,25.8,45.1,0.406,734.8,2.2,1.050*
2018-07-22 00:53:00,-2.645E-01,4C000000*,-703.0,966.214,90,25.7,44.9,0.406,734.8,2.2,1.050*
2018-07-22 00:54:00,-3.444E-01,4C000000*,-703.0,966.618,90,25.7,44.9,0.406,735.1,2.2,1.050*
2018-07-22 00:55:00,-3.511E-01,4C000000*,-702.6,966.214,91,25.6,45.2,0.406,734.8,2.2,1.050*
2018-07-22 00:56:00,-2.605E-01,4C000000*,-703.0,966.214,91,25.6,44.7,0.406,735.1,2.2,1.050*
2018-07-22 00:57:00,-3.470E-01,4C000000*,-702.6,966.214,90,25.6,44.9,0.406,734.8,2.2,1.050*
2018-07-22 00:58:00,-2.657E-01,4C000000*,-703.0,967.022,90,25.7,45.1,0.406,734.8,2.2,1.050*
2018-07-22 00:59:00,-2.279E-01,4C000000*,-702.6,966.618,90,25.6,44.8,0.406,734.8,2.2,1.050*
2018-07-22 01:00:00,-1.964E-01,4C000000*,-702.6,965.809,89,25.6,45.0,0.406,734.8,2.2,1.050*
2018-07-22 01:01:00,-2.707E-01,4C000000*,-703.0,965.809,89,25.6,45.1,0.406,734.8,2.2,1.050*
2018-07-22 01:02:00,-3.410E-01,4C000000*,-702.6,965.809,91,25.6,44.8,0.406,735.1,2.2,1.050*
2018-07-22 01:03:00,-3.400E-01,4C000000*,-703.4,965.809,90,25.6,45.0,0.406,734.8,2.2,1.050*
2018-07-22 01:04:00,-2.028E-01,4C000000*,-702.6,965.809,90,25.7,44.9,0.406,734.8,2.2,1.050*
2018-07-22 01:05:00,-2.643E-01,4C000000*,-703.0,966.618,89,25.7,44.8,0.406,734.8,2.2,1.050*
2018-07-22 01:06:00,-2.604E-01,4C000000*,-703.0,965.809,91,25.7,45.1,0.406,734.8,2.2,1.050*
2018-07-22 01:07:00,-3.010E-01,4C000000*,-703.0,966.214,90,25.6,44.7,0.406,734.8,2.2,1.050*
2018-07-22 01:08:00,-2.364E-01,4C000000*,-702.6,967.427,87,25.7,44.9,0.406,734.8,2.2,1.050*
2018-07-22 01:09:00,-2.511E-01,4C000000*,-702.6,965.809,89,25.7,45.0,0.406,734.8,2.2,1.050*
2018-07-22 01:10:00,-2.578E-01,4C000000*,-703.0,966.618,90,25.7,44.8,0.405,734.8,2.2,1.050*
2018-07-22 01:11:00,-2.777E-01,4C000000*,-702.6,966.618,89,25.6,45.0,0.406,734.8,2.2,1.050*
2018-07-22 01:12:00,-3.277E-01,4C000000*,-703.4,966.214,90,25.7,45.0,0.406,734.8,2.2,1.050*
2018-07-22 01:13:00,-2.470E-01,4C000000*,-703.0,965.405,91,25.6,44.8,0.406,734.8,2.2,1.050*
2018-07-22 01:14:00,-1.846E-01,4C000000*,-702.6,966.214,90,25.7,45.0,0.406,734.8,2.2,1.050*
2018-07-22 01:15:00,-3.003E-01,4C000000*,-703.0,966.618,89,25.7,45.0,0.405,734.5,2.2,1.050*
2018-07-22 01:16:00,-3.094E-01,4C000000*,-702.6,964.192,90,25.7,44.9,0.406,734.5,2.2,1.050*
2018-07-22 01:17:00,-3.065E-01,4C000000*,-703.0,966.214,90,25.7,45.1,0.406,734.5,2.2,1.050*
2018-07-22 01:18:00,-3.073E-01,4C000000*,-703.0,965.809,90,25.7,44.8,0.406,734.5,2.2,1.050*
2018-07-22 01:19:00,-2.888E-01,4C000000*,-703.0,964.597,89,25.8,44.9,0.405,734.5,2.2,1.050*
2018-07-22 01:20:00,-2.560E-01,4C000000*,-702.6,965.809,92,25.7,45.1,0.406,734.5,2.2,1.050*
2018-07-22 01:21:00,-3.471E-01,4C000000*,-703.0,965.001,90,25.7,44.8,0.406,734.5,2.2,1.050*
2018-07-22 01:22:00,-3.335E-01,4C000000*,-703.0,965.809,90,25.7,45.0,0.406,734.8,2.2,1.050*
2018-07-22 01:23:00,-2.305E-01,4C000000*,-703.0,965.405,89,25.8,45.0,0.406,734.5,2.2,1.050*
2018-07-22 01:24:00,-3.217E-01,4C000000*,-703.0,965.001,90,25.7,44.8,0.406,734.5,2.2,1.050*
2018-07-22 01:25:00,-2.779E-01,4C000000*,-702.6,965.405,90,25.7,45.1,0.406,734.8,2.2,1.050*
2018-07-22 01:26:00,-3.582E-01,4C000000*,-703.0,967.427,88,25.7,44.9,0.406,734.5,2.2,1.050*
2018-07-22 01:27:00,-3.056E-01,4C000000*,-703.0,966.618,89,25.8,44.9,0.406,734.5,2.2,1.050*
2018-07-22 01:28:00,-1.877E-01,4C000000*,-702.6,965.809,89,25.7,45.1,0.406,734.5,2.2,1.050*
2018-07-22 01:29:00,-2.339E-01,4C000000*,-703.0,965.809,88,25.8,44.7,0.406,734.5,2.2,1.050*
2018-07-22 01:30:00,-2.817E-01,4C000000*,-703.0,966.618,88,25.7,44.8,0.406,734.5,2.2,1.050*
2018-07-22 01:31:00,-1.646E-01,4C000000*,-703.0,966.214,89,25.7,45.1,0.406,734.5,2.2,1.050*
2018-07-22 01:32:00,-3.036E-01,4C000000*,-703.0,965.809,91,25.7,44.8,0.406,734.8,2.2,1.050*
2018-07-22 01:33:00,-2.595E-01,4C000000*,-703.0,967.427,90,25.7,45.0,0.406,734.5,2.2,1.050*
2018-07-22 01:34:00,-2.901E-01,4C000000*,-703.4,966.214,91,25.8,45.0,0.406,734.5,2.2,1.050*
2018-07-22 01:35:00,-2.662E-01,4C000000*,-703.0,965.809,89,25.7,44.8,0.406,734.5,2.2,1.050*
2018-07-22 01:36:00,-3.087E-01,4C000000*,-703.0,966.214,90,25.7,45.0,0.406,734.8,2.2,1.050*
2018-07-22 01:37:00,-2.857E-01,4C000000*,-703.0,965.809,89,25.8,44.9,0.406,734.5,2.2,1.050*
2018-07-22 01:38:00,-2.721E-01,4C000000*,-703.0,967.022,90,25.7,44.8,0.406,734.5,2.2,1.050*
2018-07-22 01:39:00,-3.191E-01,4C000000*,-703.0,965.405,89,25.7,45.1,0.406,734.5,2.2,1.050*
2018-07-22 01:40:00,-2.743E-01,4C000000*,-703.0,967.022,89,25.8,44.8,0.406,734.5,2.2,1.050*
2018-07-22 01:41:00,-2.047E-01,4C000000*,-703.0,966.618,90,25.8,44.9,0.406,734.5,2.2,1.050*
2018-07-22 01:42:00,-3.191E-01,4C000000*,-702.6,966.214,89,25.8,45.1,0.406,734.5,2.2,1.050*
2018-07-22 01:43:00,-2.559E-01,4C000000*,-703.0,965.809,88,25.8,44.8,0.406,734.5,2.2,1.050*
2018-07-22 01:44:00,-2.897E-01,4C000000*,-703.0,965.809,91,25.8,44.9,0.406,734.5,2.2,1.050*
2018-07-22 01:45:00,-2.371E-01,4C000000*,-703.0,965.405,90,25.7,45.0,0.406,734.5,2.2,1.050*
2018-07-22 01:46:00,-3.279E-01,4C000000*,-703.0,965.405,90,25.8,44.8,0.406,734.5,2.2,1.050*
2018-07-22 01:47:00,-2.197E-01,4C000000*,-702.6,965.405,89,25.9,45.0,0.406,734.5,2.2,1.050*
2018-07-22 01:48:00,-3.369E-01,4C000000*,-703.0,966.618,89,25.9,44.9,0.406,734.5,2.2,1.050*
2018-07-22 01:49:00,-3.049E-01,4C000000*,-702.6,966.618,90,25.9,44.8,0.406,734.5,2.2,1.050*
2018-07-22 01:50:00,-3.273E-01,4C000000*,-702.6,968.235,89,25.9,45.0,0.406,734.5,2.2,1.050*
2018-07-22 01:51:00,-3.650E-01,4C000000*,-703.0,966.618,90,25.9,44.8,0.406,734.5,2.2,1.050*
2018-07-22 01:52:00,-2.853E-01,4C000000*,-702.6,965.001,90,25.8,44.9,0.406,734.5,2.2,1.050*
2018-07-22 01:53:00,-2.264E-01,4C000000*,-702.3,967.022,89,25.9,45.1,0.406,734.5,2.2,1.050*
2018-07-22 01:54:00,-2.410E-01,4C000000*,-702.6,965.405,90,25.8,44.8,0.406,734.5,2.2,1.050*
2018-07-22 01:55:00,-2.613E-01,4C000000*,-703.0,966.618,91,25.8,45.0,0.406,734.5,2.2,1.050*
2018-07-22 01:56:00,-2.588E-01,4C000000*,-702.6,965.001,90,25.9,45.0,0.406,734.5,2.2,1.050*
2018-07-22 01:57:00,-2.389E-01,4C000000*,-703.0,966.214,91,25.9,44.8,0.406,734.5,2.2,1.050*
2018-07-22 01:58:00,-3.339E-01,4C000000*,-702.6,965.809,90,25.8,45.0,0.406,734.5,2.2,1.050*
2018-07-22 01:59:00,-3.125E-01,4C000000*,-703.0,965.001,90,25.8,44.9,0.405,734.2,2.2,1.050*
2018-07-22 02:00:00,-3.333E-01,4C000000*,-703.0,966.618,91,25.9,44.8,0.406,734.5,2.2,1.050*
2018-07-22 02:01:00,-2.775E-01,4C000000*,-702.6,967.022,88,25.8,45.1,0.406,734.5,2.2,1.050*
2018-07-22 02:02:00,-2.993E-01,4C000000*,-702.6,966.618,90,25.8,44.8,0.406,734.2,2.2,1.050*
2018-07-22 02:03:00,-3.003E-01,4C000000*,-703.4,966.618,88,25.9,44.9,0.406,734.5,2.2,1.050*
2018-07-22 02:04:00,-3.150E-01,4C000000*,-702.6,966.618,90,25.9,45.2,0.406,734.2,2.2,1.050*
2018-07-22 02:05:00,-2.618E-01,4C000000*,-703.0,965.809,90,25.8,44.8,0.406,734.5,2.2,1.050*
2018-07-22 02:06:00,-2.914E-01,4C000000*,-703.0,966.214,91,25.9,44.9,0.405,734.5,2.2,1.050*
2018-07-22 02:07:00,-3.428E-01,4C000000*,-702.6,965.001,90,25.9,45.0,0.405,734.2,2.2,1.050*
2018-07-22 02:08:00,-2.647E-01,4C000000*,-703.0,965.809,89,25.9,44.8,0.406,734.2,2.2,1.050*
2018-07-22 02:09:00,-2.401E-01,4C000000*,-702.6,966.618,90,25.9,45.0,0.406,734.5,2.2,1.050*
2018-07-22 02:10:00,-2.930E-01,4C000000*,-703.0,965.405,90,25.9,45.0,0.406,734.2,2.2,1.050*
2018-07-22 02:11:00,-2.601E-01,4C000000*,-703.0,966.618,90,25.9,44.9,0.405,734.5,2.2,1.050*
2018-07-22 02:12:00,-2.235E-01,4C000000*,-703.0,966.618,89,25.9,45.1,0.405,734.2,2.2,1.050*
2018-07-22 02:13:00,-2.732E-01,4C000000*,-702.6,965.809,91,25.9,44.8,0.406,734.2,2.2,1.050*
2018-07-22 02:14:00,-2.939E-01,4C000000*,-703.0,966.214,91,25.9,44.8,0.406,734.2,2.2,1.050*
2018-07-22 02:15:00,-3.676E-01,4C000000*,-703.0,966.214,89,25.9,45.2,0.406,734.2,2.2,1.050*
2018-07-22 02:16:00,-3.350E-01,4C000000*,-703.0,965.809,91,25.9,44.8,0.406,734.2,2.2,1.050*
2018-07-22 02:17:00,-2.929E-01,4C000000*,-703.0,966.214,88,25.9,45.0,0.405,734.2,2.2,1.050*
2018-07-22 02:18:00,-3.321E-01,4C000000*,-702.6,966.214,91,26.0,45.0,0.405,733.9,2.2,1.050*
2018-07-22 02:19:00,-3.218E-01,4C000000*,-703.0,965.405,90,25.9,44.8,0.406,733.9,2.2,1.050*
2018-07-22 02:20:00,-2.915E-01,4C000000*,-702.6,967.022,89,26.0,45.0,0.406,734.2,2.2,1.050*
2018-07-22 02:21:00,-3.237E-01,4C000000*,-702.6,965.405,89,25.9,45.1,0.406,733.9,2.2,1.050*
2018-07-22 02:22:00,-2.956E-01,4C000000*,-703.0,966.214,91,25.9,44.9,0.406,734.2,2.2,1.050*
2018-07-22 02:23:00,-2.676E-01,4C000000*,-702.6,965.809,91,25.9,45.0,0.405,734.2,2.2,1.050*
2018-07-22 02:24:00,-3.421E-01,4C000000*,-703.0,965.001,91,26.0,44.8,0.406,734.2,2.2,1.050*
2018-07-22 02:25:00,-2.243E-01,4C000000*,-702.6,965.405,90,25.9,44.8,0.406,734.2,2.2,1.050*
2018-07-22 02:26:00,-2.053E-01,4C000000*,-702.6,966.618,91,26.0,45.2,0.406,734.2,2.2,1.050*
2018-07-22 02:27:00,-2.970E-01,4C000000*,-702.6,965.809,90,26.0,44.8,0.405,734.2,2.2,1.050*
2018-07-22 02:28:00,-2.762E-01,4C000000*,-703.0,965.001,90,26.0,45.0,0.406,734.2,2.2,1.050*
2018-07-22 02:29:00,-3.519E-01,4C000000*,-703.0,965.001,89,26.0,45.0,0.405,733.9,2.2,1.050*
2018-07-22 02:30:00,-2.755E-01,4C000000*,-702.6,966.618,90,25.9,44.8,0.406,734.2,2.2,1.050*
2018-07-22 02:31:00,-2.836E-01,4C000000*,-703.0,963.788,90,26.0,45.0,0.406,734.2,2.2,1.050*
2018-07-22 02:32:00,-3.644E-01,4C000000*,-703.0,966.214,90,26.0,45.0,0.405,733.9,2.2,1.050*
2018-07-22 02:33:00,-2.243E-01,4C000000*,-703.0,965.405,90,26.0,44.8,0.405,734.2,2.2,1.050*
2018-07-22 02:34:00,-3.363E-01,4C000000*,-703.0,964.597,90,26.0,45.1,0.405,734.2,2.2,1.050*
2018-07-22 02:35:00,-2.343E-01,4C000000*,-703.0,965.405,90,25.9,44.9,0.405,734.2,2.2,1.050*
2018-07-22 02:36:00,-2.225E-01,4C000000*,-703.0,963.788,90,26.0,44.9,0.406,734.2,2.2,1.050*
2018-07-22 02:37:00,-3.308E-01,4C000000*,-702.6,967.831,89,26.0,45.2,0.406,734.2,2.2,1.050*
2018-07-22 02:38:00,-2.405E-01,4C000000*,-703.0,966.618,89,26.0,44.7,0.406,734.2,2.2,1.050*
2018-07-22 02:39:00,-3.842E-01,4C000000*,-702.6,965.809,90,26.0,44.9,0.406,733.9,2.2,1.050*
2018-07-22 02:40:00,-3.486E-01,4C000000*,-703.0,965.809,90,26.0,44.9,0.406,733.9,2.2,1.050*
2018-07-22 02:41:00,-2.846E-01,4C000000*,-702.6,964.597,90,26.0,44.9,0.406,733.9,2.2,1.050*
2018-07-22 02:42:00,-1.854E-01,4C000000*,-703.0,964.597,90,26.0,45.1,0.405,734.2,2.2,1.050*
2018-07-22 02:43:00,-3.124E-01,4C000000*,-702.6,966.214,90,26.0,44.8,0.406,734.2,2.2,1.050*
2018-07-22 02:44:00,-2.704E-01,4C000000*,-703.0,966.214,88,26.0,45.1,0.406,734.2,2.2,1.050*
2018-07-22 02:45:00,-2.501E-01,4C000000*,-703.0,965.405,91,26.0,44.9,0.405,733.9,2.2,1.050*
2018-07-22 02:46:00,-2.302E-01,4C000000*,-703.0,965.809,88,26.0,44.9,0.405,733.9,2.2,1.050*
2018-07-22 02:47:00,-3.038E-01,4C000000*,-702.6,965.809,89,26.0,45.1,0.406,734.2,2.2,1.050*
2018-07-22 02:48:00,-2.413E-01,4C000000*,-703.0,965.405,90,26.0,44.8,0.405,733.9,2.2,1.050*
2018-07-22 02:49:00,-2.664E-01,4C000000*,-703.4,965.405,89,25.9,44.9,0.406,733.9,2.2,1.050*
2018-07-22 02:50:00,-3.425E-01,4C000000*,-702.6,965.405,89,26.0,45.1,0.406,733.9,2.2,1.050*
2018-07-22 02:51:00,-2.424E-01,4C000000*,-702.6,965.809,90,26.0,44.8,0.406,733.9,2.2,1.050*
2018-07-22 02:52:00,-2.611E-01,4C000000*,-703.0,966.214,88,26.0,45.0,0.405,734.2,2.2,1.050*
2018-07-22 02:53:00,-2.692E-01,4C000000*,-703.0,965.001,88,26.0,45.0,0.405,733.9,2.2,1.050*
2018-07-22 02:54:00,-2.497E-01,4C000000*,-702.6,965.809,90,26.1,44.8,0.405,733.9,2.2,1.050*
2018-07-22 02:55:00,-3.177E-01,4C000000*,-702.6,965.405,91,26.1,45.0,0.406,733.9,2.2,1.050*
2018-07-22 02:56:00,-3.075E-01,4C000000*,-703.0,964.597,90,26.0,44.9,0.405,733.9,2.2,1.050*
2018-07-22 02:57:00,-3.341E-01,4C000000*,-703.0,965.405,90,26.1,44.9,0.405,733.9,2.2,1.050*
2018-07-22 02:58:00,-2.810E-01,4C000000*,-703.0,965.001,91,26.1,45.1,0.405,733.9,2.2,1.050*
2018-07-22 02:59:00,-2.334E-01,4C000000*,-703.0,964.597,90,26.0,44.8,0.405,733.9,2.2,1.050*
2018-07-22 03:00:00,-2.734E-01,4C000000*,-703.4,967.427,91,26.1,44.9,0.405,733.9,2.2,1.050*
2018-07-22 03:01:00,-2.551E-01,4C000000*,-703.0,966.618,88,26.0,45.1,0.406,733.9,2.2,1.050*
2018-07-22 03:02:00,-3.210E-01,4C000000*,-702.6,966.214,90,26.0,44.8,0.406,733.9,2.2,1.050*
2018-07-22 03:03:00,-2.952E-01,4C000000*,-703.0,966.214,91,26.0,45.0,0.406,733.9,2.2,1.050*
2018-07-22 03:04:00,-2.834E-01,4C000000*,-703.0,965.809,90,26.1,45.1,0.406,733.9,2.2,1.050*
2018-07-22 03:05:00,-2.313E-01,4C000000*,-702.6,965.001,90,26.1,44.8,0.406,733.9,2.2,1.050*
2018-07-22 03:06:00,-2.664E-01,4C000000*,-702.6,965.809,88,26.1,45.1,0.406,734.2,2.2,1.050*
2018-07-22 03:07:00,-2.484E-01,4C000000*,-702.6,964.597,90,26.1,44.8,0.405,733.9,2.2,1.050*
2018-07-22 03:08:00,-1.407E-01,4C000000*,-702.6,965.809,90,26.1,44.8,0.406,734.2,2.2,1.050*
2018-07-22 03:09:00,-3.571E-01,4C000000*,-703.4,966.214,90,26.1,45.1,0.406,734.2,2.2,1.050*
2018-07-22 03:10:00,-2.785E-01,4C000000*,-702.6,965.001,89,26.0,44.9,0.406,733.9,2.2,1.050*
2018-07-22 03:11:00,-3.098E-01,4C000000*,-703.0,965.405,89,26.2,44.9,0.406,734.2,2.2,1.050*
2018-07-22 03:12:00,-2.916E-01,4C000000*,-703.0,966.214,90,26.1,45.2,0.406,733.9,2.2,1.050*
2018-07-22 03:13:00,-3.184E-01,4C000000*,-702.3,966.618,90,26.1,44.8,0.405,733.9,2.2,1.050*
2018-07-22 03:14:00,-2.536E-01,4C000000*,-703.0,966.214,90,26.2,45.0,0.405,733.9,2.2,1.050*
2018-07-22 03:15:00,-2.629E-01,4C000000*,-702.6,965.405,89,26.1,45.0,0.406,733.9,2.2,1.050*
2018-07-22 03:16:00,-2.344E-01,4C000000*,-702.6,965.809,90,26.1,44.8,0.406,733.9,2.2,1.050*
2018-07-22 03:17:00,-2.689E-01,4C000000*,-702.6,965.001,89,26.1,45.0,0.405,733.9,2.2,1.050*
2018-07-22 03:18:00,-2.585E-01,4C000000*,-702.6,965.809,89,26.1,45.0,0.406,733.6,2.2,1.050*
2018-07-22 03:19:00,-3.493E-01,4C000000*,-702.3,965.809,91,26.1,44.9,0.406,733.9,2.2,1.050*
2018-07-22 03:20:00,-2.356E-01,4C000000*,-702.6,965.809,89,26.1,45.1,0.406,733.9,2.2,1.050*
2018-07-22 03:21:00,-3.340E-01,4C000000*,-703.0,965.809,90,26.1,44.8,0.405,733.6,2.2,1.050*
2018-07-22 03:22:00,-2.716E-01,4C000000*,-701.9,965.001,90,26.1,44.9,0.405,733.9,2.2,1.050*
2018-07-22 03:23:00,-3.143E-01,4C000000*,-703.0,966.618,90,26.1,45.2,0.405,733.6,2.2,1.050*
2018-07-22 03:24:00,-3.213E-01,4C000000*,-703.4,965.405,87,26.2,44.8,0.405,733.6,2.2,1.050*
2018-07-22 03:25:00,-3.202E-01,4C000000*,-703.4,965.809,90,26.2,45.0,0.405,733.3,2.2,1.050*
2018-07-22 03:26:00,-3.160E-01,4C000000*,-703.0,964.597,91,26.2,45.0,0.406,733.6,2.2,1.050*
2018-07-22 03:27:00,-2.840E-01,4C000000*,-703.0,965.405,91,26.2,44.8,0.405,733.6,2.2,1.050*
2018-07-22 03:28:00,-2.690E-01,4C000000*,-703.0,963.788,89,26.2,45.0,0.406,733.9,2.2,1.050*
2018-07-22 03:29:00,-2.643E-01,4C000000*,-702.6,965.001,90,26.2,45.0,0.405,733.3,2.2,1.050*
2018-07-22 03:30:00,-2.948E-01,4C000000*,-703.0,965.405,90,26.2,44.9,0.406,733.6,2.2,1.050*
2018-07-22 03:31:00,-2.591E-01,4C000000*,-703.0,964.597,91,26.3,45.1,0.405,733.6,2.2,1.050*
2018-07-22 03:32:00,-2.829E-01,4C000000*,-702.6,964.597,90,26.2,44.8,0.405,733.6,2.2,1.050*
2018-07-22 03:33:00,-3.069E-01,4C000000*,-702.6,964.597,90,26.2,44.9,0.406,733.9,2.2,1.050*
2018-07-22 03:34:00,-2.840E-01,4C000000*,-703.0,964.597,90,26.2,45.2,0.405,733.6,2.2,1.050*
2018-07-22 03:35:00,-2.797E-01,4C000000*,-703.0,963.384,90,26.2,44.8,0.405,733.9,2.2,1.050*
2018-07-22 03:36:00,-2.343E-01,4C000000*,-703.0,965.001,90,26.2,44.9,0.405,733.6,2.2,1.050*
2018-07-22 03:37:00,-2.131E-01,4C000000*,-703.0,963.788,90,26.2,45.0,0.405,733.6,2.2,1.050*
2018-07-22 03:38:00,-3.032E-01,4C000000*,-702.6,963.788,87,26.2,44.8,0.405,733.9,2.2,1.050*
2018-07-22 03:39:00,-2.953E-01,4C000000*,-702.6,964.192,91,26.2,45.0,0.405,733.6,2.2,1.050*
2018-07-22 03:40:00,-3.003E-01,4C000000*,-703.0,965.001,90,26.2,45.0,0.406,733.6,2.2,1.050*
2018-07-22 03:41:00,-2.378E-01,4C000000*,-703.0,965.001,90,26.2,44.8,0.406,733.6,2.2,1.050*
2018-07-22 03:42:00,-2.519E-01,4C000000*,-702.6,964.597,89,26.2,45.0,0.405,733.6,2.2,1.050*
2018-07-22 03:43:00,-3.127E-01,4C000000*,-703.0,965.405,90,26.2,44.9,0.405,733.6,2.2,1.050*
2018-07-22 03:44:00,-3.407E-01,4C000000*,-702.6,965.001,91,26.2,44.9,0.405,733.6,2.2,1.050*
2018-07-22 03:45:00,-2.976E-01,4C000000*,-703.0,963.788,90,26.2,45.2,0.405,733.3,2.2,1.050*
2018-07-22 03:46:00,-2.528E-01,4C000000*,-702.6,964.192,90,26.2,44.8,0.405,733.3,2.2,1.050*
2018-07-22 03:47:00,-2.840E-01,4C000000*,-703.0,964.597,91,26.3,45.0,0.405,733.3,2.2,1.050*
2018-07-22 03:48:00,-2.239E-01,4C000000*,-703.0,963.788,90,26.3,45.0,0.405,733.3,2.2,1.050*
2018-07-22 03:49:00,-2.997E-01,4C000000*,-702.6,965.809,91,26.3,44.9,0.405,733.3,2.2,1.050*
2018-07-22 03:50:00,-3.620E-01,4C000000*,-702.6,964.597,90,26.3,45.2,0.405,733.3,2.2,1.050*
2018-07-22 03:51:00,-2.584E-01,4C000000*,-702.6,965.001,89,26.3,44.7,0.405,733.3,2.2,1.050*
2018-07-22 03:52:00,-2.298E-01,4C000000*,-703.0,965.001,91,26.3,44.9,0.405,733.3,2.2,1.050*
2018-07-22 03:53:00,-3.160E-01,4C000000*,-703.0,964.192,90,26.3,45.0,0.405,733.3,2.2,1.050*
2018-07-22 03:54:00,-2.723E-01,4C000000*,-703.0,965.001,90,26.3,44.8,0.405,733.0,2.2,1.050*
2018-07-22 03:55:00,-2.860E-01,4C000000*,-703.0,964.597,90,26.3,45.0,0.405,733.3,2.2,1.050*
2018-07-22 03:56:00,-2.134E-01,4C000000*,-702.6,964.192,90,26.3,45.0,0.405,733.3,2.2,1.050*
2018-07-22 03:57:00,-3.177E-01,4C000000*,-703.0,964.192,88,26.3,44.8,0.405,733.3,2.2,1.050*
2018-07-22 03:58:00,-2.978E-01,4C000000*,-702.6,965.001,91,26.3,45.0,0.406,733.3,2.2,1.050*
2018-07-22 03:59:00,-2.261E-01,4C000000*,-703.0,964.192,90,26.3,44.9,0.405,733.3,2.2,1.050*
2018-07-22 04:00:00,-3.073E-01,4C000000*,-702.6,964.597,90,26.3,44.9,0.405,733.3,2.2,1.050*
2018-07-22 04:01:00,-3.036E-01,4C000000*,-702.6,963.788,89,26.3,45.1,0.405,733.3,2.2,1.050*
2018-07-22 04:02:00,-2.516E-01,4C000000*,-703.0,964.192,90,26.4,44.8,0.405,733.0,2.2,1.050*
2018-07-22 04:03:00,-3.464E-01,4C000000*,-703.0,963.788,90,26.3,44.9,0.405,733.3,2.2,1.050*
2018-07-22 04:04:00,-2.231E-01,4C000000*,-702.6,964.597,91,26.3,45.1,0.405,733.3,2.2,1.050*
2018-07-22 04:05:00,-3.020E-01,4C000000*,-703.0,965.001,90,26.4,44.8,0.405,733.0,2.2,1.050*
2018-07-22 04:06:00,-2.290E-01,4C000000*,-703.0,963.788,90,26.5,45.0,0.405,733.0,2.2,1.050*
2018-07-22 04:07:00,-2.548E-01,4C000000*,-703.0,965.809,90,26.4,45.0,0.405,733.0,2.2,1.050*
2018-07-22 04:08:00,-3.921E-01,4C000000*,-702.6,965.001,89,26.3,44.8,0.405,733.0,2.2,1.050*
2018-07-22 04:09:00,-3.213E-01,4C000000*,-703.4,964.192,90,26.4,45.1,0.405,733.3,2.2,1.050*
2018-07-22 04:10:00,-2.741E-01,4C000000*,-702.6,965.001,90,26.3,44.9,0.405,733.0,2.2,1.050*
2018-07-22 04:11:00,-2.789E-01,4C000000*,-703.0,965.001,90,26.4,44.9,0.405,733.0,2.2,1.050*
2018-07-22 04:12:00,-2.903E-01,4C000000*,-702.6,963.384,91,26.3,45.1,0.405,733.0,2.2,1.050*
2018-07-22 04:13:00,-2.376E-01,4C000000*,-703.0,963.384,90,26.4,44.9,0.405,733.0,2.2,1.050*
2018-07-22 04:14:00,-3.028E-01,4C000000*,-703.0,965.001,91,26.3,44.9,0.405,733.0,2.2,1.050*